User: anonymous   Login
Location: Andrest
(43.3200°N, 0.0641°E)
Time: 16:33:15
(UTC+00:00)
Language:

COSMO-SKYMED 1 - Orbit

View from above orbital plane
View from above orbital plane
View from above satellite
View from above satellite

Ground track
Ground track

The orbit data is extracted from the following two-line orbital elements,

1 31598U 07023A   21136.84480983 -.00000141  00000-0 -11114-4 0  9995
2 31598  97.8891 321.1857 0001587  88.8660 271.2740 14.82157065754215
Epoch (UTC): 16 May 2021 20:16:31
Eccentricity: 0.0001587
inclination: 97.8891°
perigee height: 621 km
apogee height: 623 km
right ascension of ascending node: 321.1857°
argument of perigee: 88.8660°
revolutions per day: 14.82157065
mean anomaly at epoch: 271.2740°
orbit number at epoch: 75421

The dashed part of the orbit path shows where the satellite is in the earth's shadow,  

DLR